project_name,platform_name,Date_(yyyymmdd),Time_(hh24miss),beacon_ID,latitude_DD,longitude_DD,altitude_m,altitude_result_value_type,speed_m_s,speed_result_value_type,direction_degrees,direction_result_value_type,fix,sat
BaySys,Amundsen,2008-07-06,20:48:53,300034012816330,75.1036,-120.3153,6.1458,Actual,0.0000,Calculated,236.6700,Calculated,1,5
BaySys,Amundsen,2008-07-06,22:46:43,300034012816330,75.1037,-120.3153,2.9565,Actual,0.0016,Calculated,303.1500,Calculated,1,5
BaySys,Amundsen,2008-07-07,00:46:17,300034012816330,75.1036,-120.3158,-4.4744,Actual,0.0025,Calculated,297.6400,Calculated,1,7
BaySys,Amundsen,2008-07-07,02:47:05,300034012816330,75.1029,-120.3189,-4.8523,Actual,0.0163,Calculated,310.4100,Calculated,1,6
BaySys,Amundsen,2008-07-07,04:46:27,300034012816330,75.1014,-120.3231,-0.9143,Actual,0.0288,Calculated,123.1400,Calculated,1,8
BaySys,Amundsen,2008-07-07,06:46:37,300034012816330,75.1008,-120.3213,5.4983,Actual,0.0117,Calculated,69.7900,Calculated,1,7
BaySys,Amundsen,2008-07-07,08:46:30,300034012816330,75.1010,-120.3202,-17.0912,Actual,0.0054,Calculated,224.2900,Calculated,1,7
BaySys,Amundsen,2008-07-07,10:46:31,300034012816330,75.1018,-120.3236,-8.2899,Actual,0.0184,Calculated,3.1000,Calculated,1,9
BaySys,Amundsen,2008-07-07,12:47:05,300034012816330,75.1039,-120.3339,-4.7763,Actual,0.0522,Calculated,115.4300,Calculated,1,10
BaySys,Amundsen,2008-07-07,14:46:36,300034012816330,75.1053,-120.3583,4.8327,Actual,0.1001,Calculated,304.1300,Calculated,1,6
BaySys,Amundsen,2008-07-07,16:46:33,300034012816330,75.1060,-120.3991,-5.2767,Actual,0.1631,Calculated,252.9300,Calculated,1,8
BaySys,Amundsen,2008-07-07,18:47:05,300034012816330,75.1074,-120.4422,-6.9459,Actual,0.1724,Calculated,56.7400,Calculated,1,8
BaySys,Amundsen,2008-07-07,20:47:23,300034012816330,75.1122,-120.4716,-2.4986,Actual,0.1385,Calculated,315.6200,Calculated,1,7
BaySys,Amundsen,2008-07-07,22:46:56,300034012816330,75.1197,-120.4824,-2.2834,Actual,0.1244,Calculated,354.9200,Calculated,1,8
BaySys,Amundsen,2008-07-08,00:46:39,300034012816330,75.1272,-120.4855,-8.2466,Actual,0.1172,Calculated,89.6300,Calculated,1,8
BaySys,Amundsen,2008-07-08,02:47:29,300034012816330,75.1336,-120.5013,-9.5735,Actual,0.1167,Calculated,318.2600,Calculated,1,7
BaySys,Amundsen,2008-07-08,04:46:45,300034012816330,75.1404,-120.5302,-6.3877,Actual,0.1569,Calculated,324.8300,Calculated,1,7
BaySys,Amundsen,2008-07-08,06:46:51,300034012816330,75.1478,-120.5625,3.4969,Actual,0.1721,Calculated,302.1200,Calculated,1,9
BaySys,Amundsen,2008-07-08,08:47:29,300034012816330,75.1598,-120.6022,3.5236,Actual,0.2426,Calculated,335.3800,Calculated,1,9
BaySys,Amundsen,2008-07-08,10:46:51,300034012816330,75.1782,-120.6356,-7.7093,Actual,0.3162,Calculated,326.0000,Calculated,1,9
BaySys,Amundsen,2008-07-08,12:46:55,300034012816330,75.1976,-120.6681,-0.0187,Actual,0.3270,Calculated,338.0400,Calculated,1,9
BaySys,Amundsen,2008-07-08,14:47:00,300034012816330,75.2155,-120.7053,-1.7088,Actual,0.3140,Calculated,324.6800,Calculated,1,8
BaySys,Amundsen,2008-07-08,16:46:53,300034012816330,75.2300,-120.7489,-11.5700,Actual,0.2836,Calculated,314.5200,Calculated,1,9
BaySys,Amundsen,2008-07-08,18:47:29,300034012816330,75.2444,-120.7890,-9.6232,Actual,0.2724,Calculated,336.0800,Calculated,1,8
BaySys,Amundsen,2008-07-08,20:47:05,300034012816330,75.2585,-120.8132,-11.3981,Actual,0.2394,Calculated,354.6400,Calculated,1,10
BaySys,Amundsen,2008-07-08,22:47:04,300034012816330,75.2680,-120.8273,12.4517,Actual,0.1575,Calculated,1.8200,Calculated,1,9
BaySys,Amundsen,2008-07-09,00:46:57,300034012816330,75.2717,-120.8478,-12.4510,Actual,0.0992,Calculated,8.4300,Calculated,1,9
BaySys,Amundsen,2008-07-09,02:47:35,300034012816330,75.2755,-120.8765,-12.5744,Actual,0.1269,Calculated,331.3100,Calculated,1,8
BaySys,Amundsen,2008-07-09,04:47:09,300034012816330,75.2797,-120.9081,2.3643,Actual,0.1411,Calculated,330.6300,Calculated,1,8
BaySys,Amundsen,2008-07-09,06:47:02,300034012816330,75.2829,-120.9292,5.7753,Actual,0.0969,Calculated,251.0400,Calculated,1,11
BaySys,Amundsen,2008-07-09,08:47:35,300034012816330,75.2826,-120.9393,-3.6799,Actual,0.0399,Calculated,264.7500,Calculated,1,12
BaySys,Amundsen,2008-07-09,10:47:11,300034012816330,75.2793,-120.9507,-0.0396,Actual,0.0683,Calculated,271.4000,Calculated,1,10
BaySys,Amundsen,2008-07-09,12:47:35,300034012816330,75.2752,-120.9793,-10.5735,Actual,0.1290,Calculated,174.2100,Calculated,1,9
BaySys,Amundsen,2008-07-09,14:47:15,300034012816330,75.2735,-121.0250,4.2365,Actual,0.1826,Calculated,247.3600,Calculated,1,9
BaySys,Amundsen,2008-07-09,16:47:23,300034012816330,75.2737,-121.0894,3.3201,Actual,0.2536,Calculated,273.5300,Calculated,1,7
BaySys,Amundsen,2008-07-09,18:47:22,300034012816330,75.2771,-121.1486,6.6452,Actual,0.2393,Calculated,279.8700,Calculated,1,9
BaySys,Amundsen,2008-07-09,20:47:53,300034012816330,75.2800,-121.1800,-0.8504,Actual,0.1311,Calculated,6.2100,Calculated,1,9
BaySys,Amundsen,2008-07-09,22:47:23,300034012816330,75.2817,-121.1898,-7.9491,Actual,0.0470,Calculated,97.9900,Calculated,1,10
BaySys,Amundsen,2008-07-10,00:47:28,300034012816330,75.2820,-121.1888,-5.0753,Actual,0.0061,Calculated,273.3300,Calculated,1,13
BaySys,Amundsen,2008-07-10,02:47:30,300034012816330,75.2810,-121.1972,-19.3331,Actual,0.0365,Calculated,328.4000,Calculated,1,6
BaySys,Amundsen,2008-07-10,04:47:31,300034012816330,75.2797,-121.2234,-0.0066,Actual,0.1052,Calculated,206.2200,Calculated,1,8
BaySys,Amundsen,2008-07-10,06:47:32,300034012816330,75.2786,-121.2561,-20.9372,Actual,0.1300,Calculated,266.9900,Calculated,1,8
BaySys,Amundsen,2008-07-10,08:48:05,300034012816330,75.2765,-121.2953,-4.9856,Actual,0.1572,Calculated,263.9300,Calculated,1,11
BaySys,Amundsen,2008-07-10,10:47:39,300034012816330,75.2759,-121.3403,-7.6814,Actual,0.1783,Calculated,312.9900,Calculated,1,15
BaySys,Amundsen,2008-07-10,12:47:37,300034012816330,75.2762,-121.3897,11.8006,Actual,0.1948,Calculated,258.7800,Calculated,1,9
BaySys,Amundsen,2008-07-10,14:47:33,300034012816330,75.2744,-121.4729,-7.8175,Actual,0.3294,Calculated,264.2700,Calculated,1,7
BaySys,Amundsen,2008-07-10,16:47:36,300034012816330,75.2743,-121.6060,-3.8738,Actual,0.5245,Calculated,278.2000,Calculated,1,8
BaySys,Amundsen,2008-07-10,18:47:39,300034012816330,75.2820,-121.7363,3.9116,Actual,0.5270,Calculated,293.6000,Calculated,1,11
BaySys,Amundsen,2008-07-10,20:47:53,300034012816330,75.2941,-121.8104,-14.1616,Actual,0.3463,Calculated,317.9900,Calculated,1,10
BaySys,Amundsen,2008-07-10,22:47:44,300034012816330,75.2987,-121.8338,-7.3408,Actual,0.1166,Calculated,300.9000,Calculated,1,9
BaySys,Amundsen,2008-07-11,00:48:05,300034012816330,75.2966,-121.8742,-8.1699,Actual,0.1619,Calculated,32.2200,Calculated,1,8
BaySys,Amundsen,2008-07-11,02:47:49,300034012816330,75.2948,-121.9449,-7.4969,Actual,0.2804,Calculated,300.6700,Calculated,1,7
BaySys,Amundsen,2008-07-11,04:47:57,300034012816330,75.2972,-122.0260,-0.5093,Actual,0.3211,Calculated,268.8800,Calculated,1,8
BaySys,Amundsen,2008-07-11,06:48:35,300034012816330,75.3025,-122.1136,-2.2777,Actual,0.3526,Calculated,294.9200,Calculated,1,9
BaySys,Amundsen,2008-07-11,08:47:55,300034012816330,75.3127,-122.1782,-8.6684,Actual,0.3010,Calculated,341.1500,Calculated,1,12
BaySys,Amundsen,2008-07-11,10:47:56,300034012816330,75.3210,-122.1995,-1.9237,Actual,0.1535,Calculated,311.4000,Calculated,1,12
BaySys,Amundsen,2008-07-11,12:48:35,300034012816330,75.3223,-122.1978,2.8379,Actual,0.0211,Calculated,59.8500,Calculated,1,10
BaySys,Amundsen,2008-07-11,14:48:05,300034012816330,75.3176,-122.1991,-7.4477,Actual,0.0733,Calculated,203.7900,Calculated,1,11
BaySys,Amundsen,2008-07-11,16:48:03,300034012816330,75.3183,-122.2341,-5.3313,Actual,0.1381,Calculated,295.4700,Calculated,1,10
BaySys,Amundsen,2008-07-11,18:48:00,300034012816330,75.3207,-122.2686,3.2880,Actual,0.1407,Calculated,240.0200,Calculated,1,10
BaySys,Amundsen,2008-07-11,20:48:35,300034012816330,75.3231,-122.3045,-10.0694,Actual,0.1452,Calculated,305.1000,Calculated,1,11
BaySys,Amundsen,2008-07-11,22:48:06,300034012816330,75.3270,-122.3544,-6.8442,Actual,0.2060,Calculated,315.4200,Calculated,1,11
BaySys,Amundsen,2008-07-12,00:48:35,300034012816330,75.3323,-122.3897,-7.8557,Actual,0.1605,Calculated,308.9600,Calculated,1,7
BaySys,Amundsen,2008-07-12,02:48:35,300034012816330,75.3368,-122.4085,-22.1403,Actual,0.1016,Calculated,342.9300,Calculated,1,8
BaySys,Amundsen,2008-07-12,04:48:15,300034012816330,75.3297,-122.4291,-0.9541,Actual,0.1370,Calculated,210.4400,Calculated,1,6
BaySys,Amundsen,2008-07-12,06:48:09,300034012816330,75.3127,-122.5003,-5.8180,Actual,0.3847,Calculated,246.7000,Calculated,1,11
BaySys,Amundsen,2008-07-12,08:48:35,300034012816330,75.3099,-122.5971,-12.8512,Actual,0.3818,Calculated,271.5700,Calculated,1,6
BaySys,Amundsen,2008-07-12,10:48:16,300034012816330,75.3119,-122.6771,21.6533,Actual,0.3170,Calculated,268.5600,Calculated,1,13
BaySys,Amundsen,2008-07-12,12:48:59,300034012816330,75.3147,-122.7248,0.6811,Actual,0.1914,Calculated,108.5000,Calculated,1,12
BaySys,Amundsen,2008-07-12,14:48:32,300034012816330,75.3065,-122.7417,-5.6671,Actual,0.1440,Calculated,185.9200,Calculated,1,8
BaySys,Amundsen,2008-07-12,16:48:42,300034012816330,75.2843,-122.7776,12.4934,Actual,0.3715,Calculated,223.2000,Calculated,1,9
BaySys,Amundsen,2008-07-12,18:48:31,300034012816330,75.2670,-122.8706,0.2352,Actual,0.4549,Calculated,258.3800,Calculated,1,7
BaySys,Amundsen,2008-07-12,20:48:31,300034012816330,75.2583,-122.9611,-5.6599,Actual,0.3817,Calculated,256.9000,Calculated,1,14
BaySys,Amundsen,2008-07-12,22:48:34,300034012816330,75.2561,-123.0095,-9.8173,Actual,0.1940,Calculated,252.8300,Calculated,1,13
BaySys,Amundsen,2008-07-13,00:49:05,300034012816330,75.2493,-123.0087,-9.4860,Actual,0.1050,Calculated,236.1700,Calculated,1,11
BaySys,Amundsen,2008-07-13,02:49:05,300034012816330,75.2339,-123.0047,-4.6069,Actual,0.2393,Calculated,187.8500,Calculated,1,8
BaySys,Amundsen,2008-07-13,06:48:37,300034012816330,75.1996,-123.0807,61.2094,Actual,0.3061,Calculated,194.6000,Calculated,1,9
BaySys,Amundsen,2008-07-13,08:49:05,300034012816330,75.1935,-123.1492,-1.2354,Actual,0.2863,Calculated,256.1300,Calculated,1,10
BaySys,Amundsen,2008-07-13,10:49:05,300034012816330,75.1960,-123.1815,-8.9340,Actual,0.1338,Calculated,329.2900,Calculated,1,11
BaySys,Amundsen,2008-07-13,12:48:55,300034012816330,75.1980,-123.1754,-0.4654,Actual,0.0394,Calculated,35.4700,Calculated,1,12
BaySys,Amundsen,2008-07-13,14:49:12,300034012816330,75.1932,-123.1499,-5.8589,Actual,0.1252,Calculated,113.7600,Calculated,1,12
BaySys,Amundsen,2008-07-13,16:49:35,300034012816330,75.1747,-123.1175,-9.6184,Actual,0.3133,Calculated,169.6400,Calculated,1,10
BaySys,Amundsen,2008-07-13,18:49:03,300034012816330,75.1450,-123.1227,4.1834,Actual,0.4630,Calculated,190.7100,Calculated,1,10
BaySys,Amundsen,2008-07-13,20:49:14,300034012816330,75.1187,-123.1790,-18.5245,Actual,0.4645,Calculated,220.2300,Calculated,1,11
BaySys,Amundsen,2008-07-14,00:49:12,300034012816330,75.0914,-123.3258,-2.7093,Actual,0.3612,Calculated,253.2600,Calculated,1,10
BaySys,Amundsen,2008-07-14,02:49:09,300034012816330,75.0857,-123.3610,0.1159,Actual,0.1660,Calculated,269.1600,Calculated,1,9
BaySys,Amundsen,2008-07-14,04:49:53,300034012816330,75.0755,-123.3763,-9.5678,Actual,0.1685,Calculated,196.2500,Calculated,1,11
BaySys,Amundsen,2008-07-14,06:49:11,300034012816330,75.0615,-123.4002,-3.6493,Actual,0.2385,Calculated,202.3900,Calculated,1,9
BaySys,Amundsen,2008-07-14,08:49:59,300034012816330,75.0470,-123.4459,1.1949,Actual,0.2878,Calculated,198.8900,Calculated,1,11
BaySys,Amundsen,2008-07-14,10:49:40,300034012816330,75.0380,-123.4977,-0.5288,Actual,0.2506,Calculated,248.0400,Calculated,1,13
BaySys,Amundsen,2008-07-14,12:49:23,300034012816330,75.0364,-123.5332,-3.6596,Actual,0.1446,Calculated,266.5500,Calculated,1,10
BaySys,Amundsen,2008-07-14,14:49:19,300034012816330,75.0388,-123.5338,-15.0789,Actual,0.0373,Calculated,6.0600,Calculated,1,8
BaySys,Amundsen,2008-07-14,16:49:27,300034012816330,75.0384,-123.4966,-7.2854,Actual,0.1489,Calculated,124.1600,Calculated,1,7
BaySys,Amundsen,2008-07-14,18:49:59,300034012816330,75.0308,-123.4408,-8.4937,Actual,0.2515,Calculated,180.8100,Calculated,1,10
BaySys,Amundsen,2008-07-14,20:49:27,300034012816330,75.0155,-123.3982,-9.8744,Actual,0.2936,Calculated,153.8500,Calculated,1,11
BaySys,Amundsen,2008-07-14,22:49:35,300034012816330,74.9970,-123.3858,-5.6560,Actual,0.2908,Calculated,218.0000,Calculated,1,12
BaySys,Amundsen,2008-07-15,00:50:05,300034012816330,74.9820,-123.3934,-6.4560,Actual,0.2336,Calculated,150.6100,Calculated,1,11
BaySys,Amundsen,2008-07-15,02:50:05,300034012816330,74.9722,-123.4014,-1.5127,Actual,0.1553,Calculated,191.2300,Calculated,1,10
BaySys,Amundsen,2008-07-15,04:49:39,300034012816330,74.9662,-123.3996,-5.3133,Actual,0.0936,Calculated,150.9700,Calculated,1,7
BaySys,Amundsen,2008-07-15,06:49:40,300034012816330,74.9580,-123.3918,-4.6970,Actual,0.1309,Calculated,170.7000,Calculated,1,10
BaySys,Amundsen,2008-07-15,10:49:55,300034012816330,74.9299,-123.4105,-1.0928,Actual,0.2208,Calculated,226.0400,Calculated,1,6
BaySys,Amundsen,2008-07-15,12:50:29,300034012816330,74.9155,-123.4450,-2.0361,Actual,0.2618,Calculated,220.7300,Calculated,1,12
BaySys,Amundsen,2008-07-15,14:49:55,300034012816330,74.9070,-123.4773,-3.8375,Actual,0.1863,Calculated,271.3700,Calculated,1,10
BaySys,Amundsen,2008-07-15,16:49:55,300034012816330,74.9045,-123.4879,-1.6779,Actual,0.0577,Calculated,7.0200,Calculated,1,9
BaySys,Amundsen,2008-07-15,18:50:35,300034012816330,74.9025,-123.4667,-8.1631,Actual,0.0906,Calculated,118.1600,Calculated,1,10
BaySys,Amundsen,2008-07-15,20:50:29,300034012816330,74.8950,-123.4382,-6.7076,Actual,0.1638,Calculated,189.9300,Calculated,1,13
BaySys,Amundsen,2008-07-15,22:50:18,300034012816330,74.8788,-123.4313,-4.9998,Actual,0.2531,Calculated,182.0300,Calculated,1,9
BaySys,Amundsen,2008-07-16,00:50:00,300034012816330,74.8601,-123.4514,0.7523,Actual,0.3019,Calculated,213.7300,Calculated,1,8
BaySys,Amundsen,2008-07-16,02:50:35,300034012816330,74.8472,-123.4765,-6.5236,Actual,0.2233,Calculated,217.5500,Calculated,1,7
BaySys,Amundsen,2008-07-16,04:50:08,300034012816330,74.8439,-123.4921,2.1429,Actual,0.0817,Calculated,309.7800,Calculated,1,8
BaySys,Amundsen,2008-07-16,06:50:09,300034012816330,74.8472,-123.4923,-1.1783,Actual,0.0512,Calculated,83.7000,Calculated,1,8
BaySys,Amundsen,2008-07-16,08:50:21,300034012816330,74.8538,-123.4731,-16.3714,Actual,0.1283,Calculated,55.4500,Calculated,1,9
BaySys,Amundsen,2008-07-16,10:50:35,300034012816330,74.8555,-123.4287,-12.2018,Actual,0.1815,Calculated,340.3300,Calculated,1,14
BaySys,Amundsen,2008-07-16,12:50:30,300034012816330,74.8498,-123.4052,0.7735,Actual,0.1300,Calculated,106.5500,Calculated,1,7
BaySys,Amundsen,2008-07-16,14:50:17,300034012816330,74.8406,-123.3796,-23.9064,Actual,0.1767,Calculated,156.2600,Calculated,1,9
BaySys,Amundsen,2008-07-16,16:50:11,300034012816330,74.8313,-123.3554,-7.1536,Actual,0.1746,Calculated,14.8900,Calculated,1,8
BaySys,Amundsen,2008-07-16,18:50:13,300034012816330,74.8281,-123.3401,5.8481,Actual,0.0795,Calculated,45.0200,Calculated,1,7
BaySys,Amundsen,2008-07-16,20:50:13,300034012816330,74.8306,-123.3307,-9.4793,Actual,0.0544,Calculated,329.0900,Calculated,1,10
BaySys,Amundsen,2008-07-16,22:50:53,300034012816330,74.8332,-123.3245,-9.0816,Actual,0.0473,Calculated,65.9400,Calculated,1,13
BaySys,Amundsen,2008-07-17,00:50:59,300034012816330,74.8381,-123.2982,-16.9743,Actual,0.1309,Calculated,130.9800,Calculated,1,10
BaySys,Amundsen,2008-07-17,02:50:19,300034012816330,74.8410,-123.2410,10.5604,Actual,0.2376,Calculated,90.1500,Calculated,1,8
BaySys,Amundsen,2008-07-17,04:50:22,300034012816330,74.8318,-123.1585,-4.0454,Actual,0.3637,Calculated,128.2900,Calculated,1,8
BaySys,Amundsen,2008-07-17,06:50:24,300034012816330,74.8077,-123.0961,4.9118,Actual,0.4513,Calculated,143.9600,Calculated,1,10
BaySys,Amundsen,2008-07-17,08:50:53,300034012816330,74.7922,-123.0713,-1.3022,Actual,0.2595,Calculated,41.7400,Calculated,1,12
BaySys,Amundsen,2008-07-17,10:50:42,300034012816330,74.7913,-123.0702,-4.2804,Actual,0.0147,Calculated,25.8500,Calculated,1,9
BaySys,Amundsen,2008-07-17,12:50:27,300034012816330,74.7913,-123.0706,-2.9890,Actual,0.0016,Calculated,45.3300,Calculated,1,8
BaySys,Amundsen,2008-07-17,14:50:31,300034012816330,74.7915,-123.0552,3.3464,Actual,0.0627,Calculated,118.0500,Calculated,1,9
BaySys,Amundsen,2008-07-17,16:50:34,300034012816330,74.7918,-123.0024,-8.1357,Actual,0.2148,Calculated,83.8100,Calculated,1,11
BaySys,Amundsen,2008-07-17,18:50:35,300034012816330,74.7928,-122.9450,2.2360,Actual,0.2340,Calculated,93.1300,Calculated,1,9
BaySys,Amundsen,2008-07-17,20:50:34,300034012816330,74.7930,-122.8961,-10.0468,Actual,0.1990,Calculated,21.6300,Calculated,1,11
BaySys,Amundsen,2008-07-17,22:51:05,300034012816330,74.7941,-122.8605,-11.9033,Actual,0.1452,Calculated,124.6600,Calculated,1,7
BaySys,Amundsen,2008-07-18,02:50:39,300034012816330,74.7911,-122.8216,-16.1902,Actual,0.0826,Calculated,74.1700,Calculated,1,9
BaySys,Amundsen,2008-07-18,04:50:46,300034012816330,74.7917,-122.7838,-7.7936,Actual,0.1539,Calculated,81.7800,Calculated,1,6
BaySys,Amundsen,2008-07-18,06:51:23,300034012816330,74.7924,-122.7198,1.6422,Actual,0.2593,Calculated,94.6200,Calculated,1,12
BaySys,Amundsen,2008-07-18,08:50:47,300034012816330,74.7896,-122.6355,-7.5282,Actual,0.3475,Calculated,92.0500,Calculated,1,14
BaySys,Amundsen,2008-07-18,10:51:29,300034012816330,74.7846,-122.5622,-3.1078,Actual,0.3064,Calculated,124.2600,Calculated,1,6
BaySys,Amundsen,2008-07-18,12:51:24,300034012816330,74.7847,-122.5104,-7.2093,Actual,0.2110,Calculated,110.0900,Calculated,1,7
BaySys,Amundsen,2008-07-18,14:51:48,300034012816330,74.7841,-122.4594,1.4038,Actual,0.2071,Calculated,165.5500,Calculated,1,7
BaySys,Amundsen,2008-07-18,16:51:35,300034012816330,74.7853,-122.4101,-23.9203,Actual,0.2019,Calculated,73.5700,Calculated,1,5
BaySys,Amundsen,2008-07-18,18:51:29,300034012816330,74.7886,-122.3339,-5.1516,Actual,0.3146,Calculated,86.1900,Calculated,1,6
BaySys,Amundsen,2008-07-18,20:50:54,300034012816330,74.7923,-122.2374,-18.8181,Actual,0.3988,Calculated,91.3300,Calculated,1,5
BaySys,Amundsen,2008-07-18,22:51:08,300034012816330,74.7900,-122.1329,-11.4942,Actual,0.4258,Calculated,106.6800,Calculated,1,7
BaySys,Amundsen,2008-07-19,00:51:35,300034012816330,74.7820,-122.0568,-11.0603,Actual,0.3324,Calculated,151.4200,Calculated,1,6
BaySys,Amundsen,2008-07-19,02:52:05,300034012816330,74.7720,-121.9914,-10.5282,Actual,0.3069,Calculated,98.5700,Calculated,1,5
BaySys,Amundsen,2008-07-19,04:51:13,300034012816330,74.7710,-121.9330,10.8587,Actual,0.2402,Calculated,83.9400,Calculated,1,7
BaySys,Amundsen,2008-07-19,06:51:12,300034012816330,74.7653,-121.8711,-0.9002,Actual,0.2673,Calculated,146.5200,Calculated,1,7
BaySys,Amundsen,2008-07-19,08:51:19,300034012816330,74.7590,-121.8183,-14.0963,Actual,0.2361,Calculated,122.2900,Calculated,1,8
BaySys,Amundsen,2008-07-19,10:51:26,300034012816330,74.7567,-121.7863,-5.2290,Actual,0.1351,Calculated,96.3300,Calculated,1,9
BaySys,Amundsen,2008-07-19,12:51:31,300034012816330,74.7575,-121.7802,0.7977,Actual,0.0278,Calculated,21.9000,Calculated,1,6
BaySys,Amundsen,2008-07-19,14:51:53,300034012816330,74.7582,-121.7778,-10.6147,Actual,0.0146,Calculated,26.5500,Calculated,1,8
BaySys,Amundsen,2008-07-19,16:52:05,300034012816330,74.7594,-121.7710,1.6177,Actual,0.0333,Calculated,39.7200,Calculated,1,8
BaySys,Amundsen,2008-07-19,18:51:28,300034012816330,74.7628,-121.7589,2.9022,Actual,0.0726,Calculated,88.8300,Calculated,1,7
BaySys,Amundsen,2008-07-19,20:51:59,300034012816330,74.7664,-121.7480,-16.9297,Actual,0.0710,Calculated,24.3600,Calculated,1,9
BaySys,Amundsen,2008-07-19,22:51:59,300034012816330,74.7676,-121.7464,-12.4749,Actual,0.0197,Calculated,149.7000,Calculated,1,9
BaySys,Amundsen,2008-07-20,00:51:59,300034012816330,74.7653,-121.7613,7.9859,Actual,0.0704,Calculated,259.9000,Calculated,1,6
BaySys,Amundsen,2008-07-20,02:52:05,300034012816330,74.7656,-121.7839,2.4383,Actual,0.0921,Calculated,267.3700,Calculated,1,7
BaySys,Amundsen,2008-07-20,04:51:59,300034012816330,74.7666,-121.8121,-11.2126,Actual,0.1161,Calculated,286.3300,Calculated,1,8
BaySys,Amundsen,2008-07-20,06:51:31,300034012816330,74.7700,-121.8401,2.9259,Actual,0.1262,Calculated,248.1500,Calculated,1,7
BaySys,Amundsen,2008-07-20,08:51:37,300034012816330,74.7779,-121.8674,-8.6135,Actual,0.1653,Calculated,296.0100,Calculated,1,7
BaySys,Amundsen,2008-07-20,10:51:33,300034012816330,74.7885,-121.8911,4.4234,Actual,0.1907,Calculated,319.5900,Calculated,1,9
BaySys,Amundsen,2008-07-20,12:52:05,300034012816330,74.7977,-121.9212,-5.0591,Actual,0.1871,Calculated,182.3600,Calculated,1,6
BaySys,Amundsen,2008-07-20,14:56:52,300034012816330,74.8049,-121.9673,-18.2396,Actual,0.2098,Calculated,205.1300,Calculated,1,8
BaySys,Amundsen,2008-07-20,16:52:05,300034012816330,74.8115,-122.0154,6.6315,Actual,0.2298,Calculated,304.6700,Calculated,1,6
BaySys,Amundsen,2008-07-20,18:52:07,300034012816330,74.8219,-122.0675,4.0498,Actual,0.2660,Calculated,315.0800,Calculated,1,7
BaySys,Amundsen,2008-07-20,20:51:47,300034012816330,74.8353,-122.1283,-1.8167,Actual,0.3235,Calculated,305.5200,Calculated,1,6
BaySys,Amundsen,2008-07-20,22:51:52,300034012816330,74.8512,-122.1966,-23.9217,Actual,0.3705,Calculated,319.4800,Calculated,1,7
BaySys,Amundsen,2008-07-21,00:52:23,300034012816330,74.8676,-122.2590,-16.2188,Actual,0.3570,Calculated,280.5200,Calculated,1,6
BaySys,Amundsen,2008-07-21,02:52:23,300034012816330,74.8796,-122.3162,0.6503,Actual,0.2970,Calculated,300.0100,Calculated,1,5
BaySys,Amundsen,2008-07-21,04:52:13,300034012816330,74.8876,-122.3800,-9.7487,Actual,0.2867,Calculated,297.1800,Calculated,1,7
BaySys,Amundsen,2008-07-21,06:51:57,300034012816330,74.8954,-122.4712,-4.3657,Actual,0.3889,Calculated,271.3400,Calculated,1,8
BaySys,Amundsen,2008-07-21,08:52:06,300034012816330,74.9046,-122.6026,-12.3158,Actual,0.5490,Calculated,281.6400,Calculated,1,8
BaySys,Amundsen,2008-07-21,10:52:07,300034012816330,74.9172,-122.7695,-5.6112,Actual,0.7015,Calculated,291.9400,Calculated,1,8
BaySys,Amundsen,2008-07-21,12:52:35,300034012816330,74.9350,-122.9329,-6.6356,Actual,0.7117,Calculated,92.0600,Calculated,1,6
BaySys,Amundsen,2008-07-21,14:52:23,300034012816330,74.9535,-123.0656,-17.2277,Actual,0.6077,Calculated,299.0100,Calculated,1,9
BaySys,Amundsen,2008-07-21,16:52:12,300034012816330,74.9703,-123.1871,-12.4665,Actual,0.5548,Calculated,315.4500,Calculated,1,7
BaySys,Amundsen,2008-07-21,18:52:35,300034012816330,74.9871,-123.2861,-8.8490,Actual,0.4741,Calculated,302.0600,Calculated,1,6
BaySys,Amundsen,2008-07-21,20:52:20,300034012816330,75.0054,-123.3633,8.9430,Actual,0.4211,Calculated,327.4400,Calculated,1,10
BaySys,Amundsen,2008-07-21,22:52:35,300034012816330,75.0239,-123.4015,11.0447,Actual,0.3245,Calculated,38.2700,Calculated,1,10
BaySys,Amundsen,2008-07-22,00:52:35,300034012816330,75.0319,-123.4408,-4.6443,Actual,0.2004,Calculated,26.1000,Calculated,1,6
BaySys,Amundsen,2008-07-22,04:53:05,300034012816330,75.0360,-123.5950,6.9816,Actual,0.3098,Calculated,230.9000,Calculated,1,5
BaySys,Amundsen,2008-07-22,06:53:53,300034012816330,75.0394,-123.6615,-8.4317,Actual,0.2697,Calculated,271.7300,Calculated,1,5
BaySys,Amundsen,2008-07-22,14:52:32,300034012816330,75.0188,-123.7817,-35.5126,Actual,0.1449,Calculated,214.5700,Calculated,1,7
BaySys,Amundsen,2008-07-22,16:52:33,300034012816330,75.0172,-123.8345,-4.2525,Actual,0.2131,Calculated,268.6700,Calculated,1,8
BaySys,Amundsen,2008-07-22,18:52:32,300034012816330,75.0221,-123.8603,-7.3482,Actual,0.1283,Calculated,173.8700,Calculated,1,8
BaySys,Amundsen,2008-07-22,20:53:05,300034012816330,75.0254,-123.8636,-9.9442,Actual,0.0526,Calculated,63.4100,Calculated,1,12
BaySys,Amundsen,2008-07-22,22:52:45,300034012816330,75.0249,-123.8477,5.4348,Actual,0.0644,Calculated,213.8900,Calculated,1,10
BaySys,Amundsen,2008-07-23,00:53:05,300034012816330,75.0187,-123.8471,-1.7803,Actual,0.0959,Calculated,207.6000,Calculated,1,8